Location: East Guldeford
(50.9500°N, 0.7500°E)
Time: 09:42:57
(UTC+00:00)

SL-24 DEB - Pass Details

Date: 12 May 2021
Orbit: 667 x 697 km, 92.0° (Epoch: 16 June)

Event Time Altitude Azimuth Distance (km) Brightness Sun altitude
Exits shadow 21:42:26 24° 162° (SSE) 1,377 5.2 -15.0°
Maximum altitude 21:45:11 72° 82° (E) 707 4.2 -15.2°
Drops below altitude 10° 21:49:48 10° 359° (N) 2,111 7.7 -15.6°
Sets 21:52:04 0° 357° (N) 3,033 8.8 -15.7°
